This demonstration page uses our WeatherBlox Daily Observations layout. Learn more.

Left ArrowRight Arrow

Hourly Observations for August 8, 2017

Temp ( °F °C ) Dew Point ( °F °C ) Humidity (%) Winds ( mph kmh ) Pressure ( in mb ) Visibility ( mi km ) Precip ( " mm )
12:52 am 00:52 Clear 67 19.4 64 17.8 91 91 NE 5 7 30.09 1019 10 16 0.00 0.00
1:52 am 01:52 Clear 66 18.9 63 17.2 90 90 NE 3 6 30.09 1019 10 16 0.00 0.00
2:52 am 02:52 Clear 65 18.3 63 17.2 93 93 NE 5 7 30.09 1019 10 16 0.00 0.00
3:52 am 03:52 Clear 65 18.3 63 17.2 93 93 NNE 5 7 30.09 1019 10 16 0.00 0.00
4:52 am 04:52 Clear 63 17.2 63 17.2 100 100 NNE 6 9 30.10 1019 10 16 0.00 0.00
5:16 am 05:16 Mostly Clear 63 17.2 63 17.2 100 100 NNE 7 11 30.12 1020 10 16 0.00 0.00
5:38 am 05:38 Mostly Cloudy 64 17.8 63 17.2 96 96 ENE 8 13 30.12 1020 10 16 0.00 0.00
5:52 am 05:52 Cloudy 64 17.8 64 17.8 100 100 NE 7 11 30.11 1020 9 14 0.00 0.00
6:52 am 06:52 Cloudy 65 18.3 65 18.3 100 100 ENE 9 15 30.12 1020 7 11 0.00 0.00
7:03 am 07:03 Cloudy 66 18.9 65 18.3 96 96 ENE 8 13 30.12 1020 7 11 0.00 0.00
7:52 am 07:52 Cloudy 67 19.4 65 18.3 93 93 ENE 7 11 30.13 1020 8 13 0.00 0.00
8:52 am 08:52 Mostly Cloudy 68 20 64 17.8 87 87 ENE 12 19 30.14 1021 8 13 0.00 0.00
9:10 am 09:10 Partly Cloudy 69 20.6 65 18.3 87 87 ENE 10 17 30.15 1021 8 13 0.00 0.00
9:52 am 09:52 Partly Cloudy 73 22.8 65 18.3 76 76 E 9 15 30.14 1021 10 16 0.00 0.00
10:25 am 10:25 Mostly Cloudy 74 23.3 65 18.3 74 74 ENE 9 15 30.15 1021 10 16 0.00 0.00
10:43 am 10:43 Partly Cloudy 75 23.9 65 18.3 71 71 NE 10 17 30.15 1021 10 16 0.00 0.00
10:52 am 10:52 Partly Cloudy 75 23.9 65 18.3 71 71 NE 10 17 30.15 1021 10 16 0.00 0.00
11:52 am 11:52 Partly Cloudy 78 25.6 64 17.8 62 62 NE 8 13 30.14 1021 10 16 0.00 0.00
12:01 pm 12:01 Mostly Cloudy 77 25 64 17.8 64 64 NE 10 17 30.12 1020 10 16 0.00 0.00
12:08 pm 12:08 Partly Cloudy 79 26.1 65 18.3 62 62 NE 8 13 30.12 1020 10 16 0.00 0.00
12:52 pm 12:52 Partly Cloudy 78 25.6 63 17.2 60 60 ENE 9 15 30.13 1020 10 16 0.00 0.00
1:52 pm 13:52 Mostly Sunny 79 26.1 63 17.2 58 58 VRB 7 11 30.13 1020 10 16 0.00 0.00
2:52 pm 14:52 Sunny 82 27.8 63 17.2 53 53 VRB 6 9 30.11 1020 10 16 0.00 0.00
3:52 pm 15:52 Partly Cloudy 82 27.8 61 16.1 49 49 NE 13 20 30.09 1019 10 16 0.00 0.00
4:52 pm 16:52 Sunny 81 27.2 60 15.6 49 49 NE 12 19 30.09 1019 10 16 0.00 0.00
5:52 pm 17:52 Mostly Sunny 81 27.2 60 15.6 49 49 NE 10 17 30.07 1018 10 16 0.00 0.00
6:52 pm 18:52 Mostly Sunny 80 26.7 59 15 49 49 NE 10 17 30.06 1018 10 16 0.00 0.00
7:52 pm 19:52 Sunny 76 24.4 62 16.7 62 62 NNE 6 9 30.07 1018 10 16 0.00 0.00
8:52 pm 20:52 Clear 73 22.8 63 17.2 71 71 NE 6 9 30.07 1018 10 16 0.00 0.00
9:52 pm 21:52 Clear 71 21.7 63 17.2 76 76 NE 7 11 30.09 1019 10 16 0.00 0.00
10:52 pm 22:52 Clear 70 21.1 62 16.7 76 76 E 6 9 30.10 1019 10 16 0.00 0.00
11:52 pm 23:52 Clear 69 20.6 62 16.7 78 78 ENE 6 9 30.11 1020 10 16 0.00 0.00

Powered by AerisWeather